TimeAKST,TemperatureF,Dew PointF,Humidity,Sea Level PressureIn,VisibilityMPH,Wind Direction,Wind SpeedMPH,Gust SpeedMPH,PrecipitationIn,Events,Conditions,WindDirDegrees,DateUTC
12:53 AM,37.9,34.0,86,29.94,10.0,Variable,5.8,-,N/A,,Overcast,0,2013-03-01 09:53:00
1:53 AM,37.9,34.0,86,29.96,10.0,Variable,5.8,-,0.00,,Overcast,0,2013-03-01 10:53:00
3:53 AM,37.9,34.0,86,29.95,10.0,Variable,5.8,-,0.01,,Overcast,0,2013-03-01 12:53:00
4:53 AM,39.0,33.1,79,29.96,10.0,South,3.5,-,0.00,,Overcast,170,2013-03-01 13:53:00
5:53 AM,37.9,33.1,83,29.96,10.0,Variable,4.6,-,0.00,,Partly Cloudy,0,2013-03-01 14:53:00
6:53 AM,39.0,33.1,79,29.96,10.0,Variable,4.6,-,N/A,,Mostly Cloudy,0,2013-03-01 15:53:00
7:53 AM,39.9,34.0,79,29.97,10.0,Variable,4.6,-,0.00,,Overcast,0,2013-03-01 16:53:00
8:53 AM,41.0,34.0,76,29.99,10.0,Variable,3.5,-,N/A,,Overcast,0,2013-03-01 17:53:00
9:04 AM,39.2,33.8,81,29.99,10.0,Variable,3.5,-,N/A,,Overcast,0,2013-03-01 18:04:00
9:32 AM,41.0,33.8,76,29.99,10.0,SE,4.6,-,N/A,,Overcast,140,2013-03-01 18:32:00
9:53 AM,42.1,35.1,76,30.00,10.0,SSE,4.6,-,N/A,,Overcast,150,2013-03-01 18:53:00
11:53 AM,45.0,33.1,63,29.99,10.0,Variable,4.6,-,N/A,,Overcast,0,2013-03-01 20:53:00
12:53 PM,44.1,30.0,58,29.98,10.0,Variable,3.5,-,N/A,,Overcast,0,2013-03-01 21:53:00
1:53 PM,44.1,34.0,68,29.96,10.0,South,4.6,-,N/A,,Overcast,170,2013-03-01 22:53:00
2:53 PM,43.0,35.1,74,29.97,10.0,Variable,3.5,-,0.00,,Overcast,0,2013-03-01 23:53:00
3:53 PM,43.0,36.0,76,29.96,10.0,Calm,Calm,-,0.00,,Overcast,0,2013-03-02 00:53:00
4:53 PM,41.0,37.9,89,29.96,10.0,NE,3.5,-,0.00,,Overcast,40,2013-03-02 01:53:00
5:53 PM,39.9,36.0,86,29.96,10.0,NNE,3.5,-,N/A,,Overcast,30,2013-03-02 02:53:00
6:53 PM,39.0,35.1,86,29.95,10.0,Calm,Calm,-,N/A,,Overcast,0,2013-03-02 03:53:00
7:53 PM,39.0,34.0,82,29.95,10.0,NNE,4.6,-,N/A,,Overcast,30,2013-03-02 04:53:00
8:53 PM,39.9,34.0,79,29.94,10.0,NNE,3.5,-,N/A,,Overcast,20,2013-03-02 05:53:00
9:53 PM,39.9,34.0,79,29.94,10.0,Calm,Calm,-,0.00,,Overcast,0,2013-03-02 06:53:00
10:53 PM,39.0,36.0,89,29.94,10.0,Calm,Calm,-,0.01,Rain,Light Rain,0,2013-03-02 07:53:00